Location: Austin
(30.3000°N, 97.7500°W)
Time: 11:28:12
(UTC-05:00)

Cosmos 2360 Rocket - Pass Details

Date: 26 May 2023
Orbit: 835 x 843 km, 71.0° (Epoch: 31 May)

Event Time Altitude Azimuth Distance (km) Brightness Sun altitude
Rises 20:52:35 0° 206° (SSW) 3,383 5.3 -6.2°
Reaches altitude 10° 20:55:02 10° 210° (SSW) 2,450 4.6 -6.6°
Maximum altitude 21:00:36 63° 291° (WNW) 931 2.8 -7.7°
Drops below altitude 10° 21:06:12 10° 12° (NNE) 2,457 4.9 -8.7°
Sets 21:08:40 0° 16° (NNE) 3,393 5.6 -9.2°
